CW1248 Weather Reports


Display with metric or nautical units.
time (UTC)temp
F
wind
direction
speed
MPH
gust
MPH
rain 1hr
in
rain 24hr
in
rain mn
in
humidity
%
barometer
mb
20260831220021 91 304 3.0 10.0 0.00 0.00 0.00 46 1012.3
20260831214518 91 261 4.0 11.0 0.00 0.00 0.00 45 1012.3
20260831213031 92 281 4.0 10.0 0.00 0.00 0.00 48 1012.2
20260831211515 91 291 5.0 10.0 0.00 0.00 0.00 43 1012.1
20260831210019 91 284 6.0 12.0 0.00 0.00 0.00 46 1012.1
20260831204533 91 227 5.0 10.0 0.00 0.00 0.00 49 1012.0
20260831203027 91 287 3.0 9.0 0.00 0.00 0.00 47 1012.1
20260831201517 91 237 3.0 12.0 0.00 0.00 0.00 48 1012.2
20260831200025 90 17 3.0 8.0 0.00 0.00 0.00 49 1012.1
20260831194536 90 23 2.0 8.0 0.00 0.00 0.00 51 1012.1
20260831193007 90 247 4.0 12.0 0.00 0.00 0.00 52 1012.1
20260831191504 89 298 2.0 11.0 0.00 0.00 0.00 51 1012.0
20260831190011 89 312 4.0 15.0 0.00 0.00 0.00 54 1012.0
20260831184504 88 309 3.0 9.0 0.00 0.00 0.00 58 1011.8
20260831183012 87 265 3.0 11.0 0.00 0.00 0.00 58 1011.8
20260831181520 85 93 4.0 11.0 0.00 0.00 0.00 66 1011.9
20260831180011 85 250 4.0 12.0 0.00 0.00 0.00 69 1012.0
20260831174509 84 249 4.0 9.0 0.00 0.00 0.00 72 1012.2
20260831173006 83 53 1.0 9.0 0.00 0.00 0.00 74 1012.1
20260831171504 83 309 4.0 10.0 0.00 0.00 0.00 74 1012.2
20260831170008 82 344 3.0 12.0 0.00 0.00 0.00 76 1012.3
20260831164517 82 238 5.0 10.0 0.00 0.00 0.00 77 1012.3
20260831163019 82 275 3.0 8.0 0.00 0.00 0.00 78 1012.0
20260831161511 81 281 5.0 10.0 0.00 0.00 0.00 80 1011.9
20260831160004 80 319 2.0 8.0 0.00 0.00 0.00 82 1011.9
20260831154519 80 309 4.0 12.0 0.00 0.00 0.00 82 1011.9
20260831153020 79 265 3.0 13.0 0.00 0.00 0.00 85 1011.8
20260831151527 78 302 4.0 9.0 0.00 0.00 0.00 86 1011.7
20260831150006 77 265 4.0 9.0 0.00 0.00 0.00 87 1011.6
20260831144514 76 228 4.0 10.0 0.00 0.00 0.00 89 1011.4
20260831143013 75 250 8.0 11.0 0.00 0.00 0.00 89 1011.2
20260831141510 74 232 4.0 8.0 0.00 0.00 0.00 90 1010.8
20260831140019 74 277 7.0 12.0 0.00 0.00 0.00 91 1010.8
20260831134519 73 235 4.0 9.0 0.00 0.00 0.00 93 1010.6
20260831133026 72 248 5.0 11.0 0.00 0.00 0.00 93 1010.5
20260831131517 72 227 5.0 10.0 0.00 0.00 0.00 94 1010.3
20260831130016 71 244 4.0 9.0 0.00 0.00 0.00 94 1010.0
20260831124512 71 259 3.0 8.0 0.00 0.00 0.00 94 1009.8
20260831123010 71 229 3.0 8.0 0.00 0.00 0.00 93 1009.8
20260831121530 71 242 4.0 9.0 0.00 0.00 0.00 93 1009.6
20260831120018 71 241 4.0 11.0 0.00 0.00 0.00 93 1009.5
20260831114524 71 221 2.0 7.0 0.00 0.00 0.00 93 1009.1
20260831113026 71 217 3.0 10.0 0.00 0.00 0.00 93 1008.9
20260831111521 72 225 4.0 9.0 0.00 0.00 0.00 93 1008.8
20260831110015 72 226 4.0 9.0 0.00 0.00 0.00 93 1008.5
20260831104535 72 196 6.0 10.0 0.00 0.00 0.00 93 1008.4
20260831103006 72 207 3.0 8.0 0.00 0.00 0.00 93 1008.5
20260831101515 72 214 3.0 8.0 0.00 0.00 0.00 93 1008.5
20260831100019 72 213 4.0 9.0 0.00 0.00 0.00 92 1008.5
20260831094524 72 189 4.0 10.0 0.00 0.00 0.00 92 1008.3
20260831093011 72 211 5.0 9.0 0.00 0.00 0.00 92 1008.5
20260831091515 72 214 4.0 8.0 0.00 0.00 0.00 92 1008.3
20260831090009 72 212 3.0 9.0 0.00 0.00 0.00 92 1008.3
20260831084531 72 196 4.0 10.0 0.00 0.00 0.00 92 1008.4
20260831083011 72 157 3.0 9.0 0.00 0.00 0.00 91 1008.2
20260831081522 72 190 4.0 8.0 0.00 0.00 0.00 91 1008.1
20260831080026 72 190 3.0 9.0 0.00 0.00 0.00 91 1008.1
20260831074524 72 215 5.0 10.0 0.00 0.00 0.00 91 1008.1
20260831073013 72 227 2.0 7.0 0.00 0.00 0.00 91 1008.0
20260831071508 72 169 5.0 11.0 0.00 0.00 0.00 90 1008.0
20260831070042 72 207 5.0 11.0 0.00 0.00 0.00 90 1008.3
20260831064529 72 183 3.0 11.0 0.00 0.00 0.00 90 1008.5
20260831063016 72 129 5.0 9.0 0.00 0.00 0.00 89 1008.6
20260831061523 72 153 3.0 7.0 0.00 0.00 0.00 89 1008.8
20260831060018 72 178 2.0 10.0 0.00 0.00 0.00 88 1009.0
20260831054515 72 139 6.0 11.0 0.00 0.00 0.00 88 1009.2
20260831053019 73 119 2.0 7.0 0.00 0.00 0.00 87 1009.3
20260831051535 73 117 3.0 10.0 0.00 0.00 0.00 87 1009.5
20260831050041 73 168 4.0 9.0 0.00 0.00 0.00 87 1009.7
20260831044527 73 146 5.0 13.0 0.00 0.00 0.00 87 1009.6
20260831043024 73 113 3.0 15.0 0.00 0.00 0.00 87 1009.7
20260831041520 74 135 3.0 12.0 0.00 0.00 0.00 86 1009.5
20260831040036 74 147 6.0 15.0 0.00 0.00 0.00 86 1009.7
20260831034533 74 126 6.0 11.0 0.00 0.00 0.00 86 1009.5
20260831033047 74 115 4.0 20.0 0.00 0.00 0.00 85 1009.6
20260831031527 74 146 5.0 13.0 0.00 0.00 0.00 85 1009.8
20260831030026 74 142 6.0 16.0 0.00 0.00 0.00 84 1009.6
20260831024517 75 131 6.0 14.0 0.00 0.00 0.00 82 1009.6
20260831023027 75 138 6.0 14.0 0.00 0.00 0.00 81 1009.8
20260831021529 76 144 6.0 18.0 0.00 0.00 0.00 80 1009.5
20260831020036 76 161 9.0 18.0 0.00 0.00 0.00 79 1009.8
20260831014521 77 166 5.0 13.0 0.00 0.00 0.00 78 1009.7
20260831013028 78 168 5.0 14.0 0.00 0.00 0.00 77 1009.8
20260831011531 79 158 8.0 14.0 0.00 0.00 0.00 75 1009.5
20260831010026 79 100 8.0 16.0 0.00 0.00 0.00 72 1009.4
20260831004523 81 121 7.0 17.0 0.00 0.00 0.00 69 1008.9
20260831003007 82 207 6.0 12.0 0.00 0.00 0.00 68 1009.2
20260831001514 83 153 4.0 12.0 0.00 0.00 0.00 66 1008.9
20260831000006 84 158 4.0 13.0 0.00 0.00 0.00 65 1008.5
20260830234518 85 142 5.0 14.0 0.00 0.00 0.00 64 1008.6
20260830233004 86 111 8.0 15.0 0.00 0.00 0.00 64 1008.7
20260830231514 87 153 5.0 14.0 0.00 0.00 0.00 64 1008.7
20260830230020 87 200 5.0 18.0 0.00 0.00 0.00 65 1008.7
20260830224515 88 153 5.0 16.0 0.00 0.00 0.00 63 1008.6
20260830223010 88 130 6.0 18.0 0.00 0.00 0.00 63 1008.3
20260830221513 89 111 2.0 13.0 0.00 0.00 0.00 64 1008.3